Regional Weather Roundup
Issued by NWS

Home | Current Version | Previous Version | Graphics & Text | Print | Product List | Glossary On
Versions: 1 2 3 4 5 6 7 8 9 10 11 12 13 14 15 16 17 18 19 20 21 22 23 24 25 26 27 28 29 30 31 32 33 34 35 36 37 38 39 40 41 42 43 44 45 46 47 48 49 50
367
ASUS45 KCYS 240110
RWRWY

WYOMING REGIONAL WEATHER ROUNDUP
NATIONAL WEATHER SERVICE CHEYENNE WY
700 PM MDT SUN JUL 23 2017

NOTE:  "FAIR" INDICATES FEW OR NO CLOUDS BELOW 12,000 FEET
WITH NO SIGNIFICANT WEATHER AND/OR OBSTRUCTIONS TO VISIBILITY.

WYZ001-240200-
YELLOWSTONE NATIONAL PARK

CITY           SKY/WX    TMP DP  RH WIND       PRES   REMARKS
LK YELLOWSTONE   N/A     74  31  20 VRB5      30.27F
W YELLOWSTONE  NOT AVBL

$$
WYZ002>013-054>058-071-098>099-240200-
NORTHERN WYOMING

CITY           SKY/WX    TMP DP  RH WIND       PRES   REMARKS
JACKSON        SUNNY     82  37  20 S10       30.15F
CODY           FAIR      83  41  22 NW5       30.05R
GREYBULL       FAIR      94  32  11 W9        29.90F
WORLAND        FAIR      95  35  12 N5        29.90F HX  90
SHERIDAN       FAIR      92  46  20 NW3       29.93F
BUFFALO        FAIR      87  40  19 N9        30.00F
GILLETTE       FAIR      91  41  17 SE14      29.95F
HULETT         FAIR      88  45  22 E10       29.99F
NEWCASTLE      FAIR      90  32  12 E6        29.99F

$$
WYZ014>020-022>026-101>103-240200-
CENTRAL WYOMING

CITY           SKY/WX    TMP DP  RH WIND       PRES   REMARKS
BIG PINEY      FAIR      82  31  15 NW10      30.21F
PINEDALE       FAIR      79  30  17 N12       30.22F
DUBOIS         FAIR      79  27  14 NW15G21   30.20S
LANDER         FAIR      90  29  11 W12       30.05F
RIVERTON       FAIR      90  28  11 SW10      30.03F
CASPER         FAIR      89  36  15 E12       30.00F
DOUGLAS        FAIR      91  35  13 SE16      30.02F

$$
WYZ021-027>030-104>119-240200-
SOUTHERN WYOMING

CITY           SKY/WX    TMP DP  RH WIND       PRES   REMARKS
EVANSTON       FAIR      78  38  23 S10       30.23F
KEMMERER         N/A     82  28  14 W9        30.24S
FORT BRIDGER   FAIR      82  34  18 S14       30.25S
ROCK SPRINGS   FAIR      85  26  11 W13       30.18S
RAWLINS        FAIR      85  22  10 NW7       30.15F
SARATOGA       FAIR      81  27  13 NE5       30.18F
LARAMIE        FAIR      79  42  26 SE13      30.22F
CHEYENNE       FAIR      83  38  20 S14       30.15F
TORRINGTON     FAIR      90  46  21 E14       29.98F
PINE BLUFFS    MOCLDY    88  39  18 S15       30.09F

$$




USA.gov is the U.S. government's official web portal to all federal, state and local government web resources and services.